www.pogodaiklimat.ru

Погода и климат >> Архив погоды >> Великобритания >> Олтбея


ПОГОДА в Олтбее

  • Прогноз погоды в Олтбее
  • Монитор погоды в Олтбее

АРХИВ ПОГОДЫ в Олтбее

Время (UTC), дата Ветер
(напр.,м/с)
 
Видим.   Явления Облачность Т
(С)
Тd
(С)
f
(%)
Тe
(С)
Тes
(С)
Комфортность P
(гПа)
Po
(гПа)
Тmin
(С)
Tmax
(С)
R
(мм)
R24
(мм)
S
(см)
22 12.06 С 7 20 км н/о +8.9 +5.6 80 +5 +5 1020.0 1018.6
23 12.06 С 7 21 км н/о +8.7 +5.1 78 +5 +5 1019.0 1017.7
00 13.06 С 6 20 км н/о +8.6 +4.9 78 +5 +5 1018.5 1017.1
01 13.06 С 7 35 км н/о +8.4 +3.5 71 +4 +4 1017.6 1016.3
02 13.06 СВ 6 30 км н/о +8.4 +3.6 72 +5 +5 1016.5 1015.2
03 13.06 СВ 6 28 км н/о +8.2 +5.3 82 +4 +4 1015.4 1014.1
04 13.06 С 6 24 км в посл. час дождь н/о +7.7 +5.6 87 +3 +3 1014.6 1013.2
05 13.06 С 6 30 км в посл. час дождь н/о +8.0 +3.4 73 +4 +4 1014.1 1012.8
06 13.06 С 6 22 км в посл. час дождь н/о +7.7 +4.2 78 +4 +4 1013.2 1011.8 +7.3 0.0
07 13.06 СВ 5 11 км слаб. ливневой дождь н/о +7.0 +5.1 88 +3 +3 1012.3 1010.9
08 13.06 С 4 35 км в посл. час дождь н/о +7.7 +5.3 85 +4 +4 1011.4 1010.0
09 13.06 С 5 50 км н/о +8.0 +4.6 79 +4 +4 1010.3 1008.9
10 13.06 С 5 16 км н/о +7.8 +5.3 84 +4 +4 1009.4 1008.1
11 13.06 С 7 30 км в посл. час дождь н/о +8.3 +6.5 88 +4 +4 1008.5 1007.2
12 13.06 С 6 40 км н/о +9.3 +5.8 79 +6 +6 1007.6 1006.3 0.4
13 13.06 С 7 50 км н/о +9.9 +5.7 75 +6 +6 1006.8 1005.5
14 13.06 С 7 22 км н/о +9.8 +6.3 79 +6 +6 1005.9 1004.6
15 13.06 С 6 22 км н/о +9.0 +6.0 81 +5 +5 1005.5 1004.2
16 13.06 С 5 15 км дым н/о +8.6 +6.6 87 +5 +5 1004.8 1003.4
17 13.06 СЗ 3 2600 м слаб. морось н/о +8.5 +7.9 96 +6 +6 1003.9 1002.5
18 13.06 С 4 27 км в посл. час дождь н/о +9.3 +8.6 95 +6 +6 1003.2 1001.8 +11.5 1
19 13.06 С 4 19 км н/о +9.4 +8.5 94 +7 +7 1002.8 1001.5
20 13.06 С 5 6000 м дымка н/о +9.1 +8.3 95 +6 +6 1002.5 1001.2
21 13.06 С 4 10 км слаб. морось н/о +9.2 +8.3 94 +6 +6 1002.3 1001.0
22 13.06 С 3 10 км слаб. морось н/о +9.0 +8.2 95 +6 +6 1002.1 1000.7
23 13.06 С 3 7000 м слаб. морось н/о +9.0 +8.2 95 +7 +7 1001.5 1000.2
00 14.06 С 3 11 км слаб. морось н/о +8.9 +8.2 95 +7 +7 1001.2 999.8 1
01 14.06 СЗ 3 9000 м слаб. дождь н/о +8.9 +8.3 96 +7 +7 1000.6 999.3
02 14.06 З 4 8000 м слаб. дождь н/о +8.8 +8.2 96 +6 +6 1000.2 998.9
03 14.06 З 3 10 км слаб. дождь н/о +8.7 +8.2 97 +6 +6 999.8 998.4
04 14.06 ЮЗ 3 13 км слаб. дождь н/о +8.6 +8.0 96 +6 +6 999.4 998.1
05 14.06 ЮЗ 4 18 км слаб. дождь н/о +8.8 +8.1 95 +6 +6 999.4 998.1
06 14.06 Ю 6 21 км слаб. морось н/о +9.0 +8.1 94 +5 +5 999.6 998.2 +8.6 8
07 14.06 Ю 6 29 км в посл. час дождь н/о +9.5 +8.1 91 +6 +6 999.7 998.4
08 14.06 Ю 6 26 км н/о +11.2 +9.3 88 +8 +8 1000.2 998.9
09 14.06 Ю 7 50 км в посл. час дождь н/о +11.2 +8.1 81 +8 +8 1000.7 999.4
10 14.06 Ю 6 50 км в посл. час дождь н/о +10.7 +8.2 85 +8 +8 1001.1 999.8
11 14.06 ЮЗ 8 40 км н/о +12.1 +8.3 78 +9 +9 1001.3 1000.0
12 14.06 Ю 8 35 км в посл. час дождь н/о +13.0 +7.0 67 +10 +10 1001.8 1000.5 0.2
13 14.06 Ю 6 45 км в посл. час дождь н/о +13.4 +6.5 63 +11 +11 1002.0 1000.7
14 14.06 Ю 8 40 км н/о +14.3 +7.8 65 +12 +12 1002.4 1001.1
15 14.06 Ю 8 50 км н/о +14.2 +8.4 68 +12 +12 1002.8 1001.5
16 14.06 Ю 8 45 км н/о +13.7 +7.3 65 +11 +11 1003.6 1002.3
17 14.06 Ю 9
{13}
50 км н/о +13.5 +6.5 63 +11 +11 1004.3 1003.0
18 14.06 Ю 8 40 км н/о +13.6 +6.8 63 +11 +11 1005.0 1003.7 +15.3 0.2
19 14.06 Ю 6 50 км н/о +13.2 +6.4 63 +11 +11 1005.4 1004.1
20 14.06 ЮЗ 4 50 км н/о +12.0 +7.5 74 +10 +10 1005.9 1004.5
21 14.06 З 1 50 км н/о +10.1 +6.5 78 +11 +11 1006.4 1005.1
22 14.06 СЗ 1 50 км н/о +8.5 +5.6 82 +9 +9 1006.9 1005.6
23 14.06 СВ 4 24 км н/о +11.1 +7.6 79 +9 +9 1007.4 1006.0
00 15.06 СВ 4 50 км н/о +11.0 +7.1 77 +9 +9 1007.3 1006.0
01 15.06 В 2 50 км слаб. ливневой дождь н/о +11.0 +6.7 75 +10 +10 1007.3 1006.0
02 15.06 В 2 50 км в посл. час дождь н/о +10.5 +6.0 74 +9 +9 1007.2 1005.9
03 15.06 В 2 50 км н/о +10.6 +6.7 77 +10 +10 1007.2 1005.8
04 15.06 ЮВ 5 40 км н/о +12.1 +7.6 74 +10 +10 1007.3 1005.9
05 15.06 ЮВ 5 50 км слаб. ливневой дождь н/о +12.5 +6.9 69 +10 +10 1007.3 1006.0
06 15.06 ЮВ 5 45 км в посл. час дождь н/о +12.8 +7.2 69 +11 +11 1007.5 1006.1 +7.6 0.0
07 15.06 ЮВ 5 50 км н/о +13.2 +7.6 69 +11 +11 1007.7 1006.4
08 15.06 В 3 40 км н/о +13.8 +7.6 66 +13 +13 1008.0 1006.6
09 15.06 ЮВ 4 45 км н/о +14.2 +8.1 67 +13 +13 1007.9 1006.5
10 15.06 ЮВ 3 50 км н/о +14.9 +8.4 65 +14 +14 1007.6 1006.3
11 15.06 ЮВ 3 35 км слаб. ливневой дождь н/о +14.9 +9.0 68 +14 +14 1007.7 1006.4
12 15.06 Ю 4 30 км слаб. дождь н/о +13.5 +9.8 78 +12 +12 1008.0 1006.7 0.2
13 15.06 СЗ 2 50 км в посл. час дождь н/о +14.1 +10.6 79 +14 +14 1008.1 1006.8
14 15.06 З 4 45 км н/о +12.7 +9.8 83 +11 +11 1008.0 1006.7
15 15.06 З 3 7000 м ливневой дождь н/о +11.9 +10.3 90 +10 +10 1008.4 1007.1
16 15.06 СЗ 2 35 км в посл. час дождь н/о +12.4 +10.4 88 +11 +11 1008.0 1006.7
17 15.06 СЗ 3 35 км н/о +14.1 +10.5 79 +13 +13 1007.7 1006.4
18 15.06 С 2 35 км н/о +15.0 +10.9 76 +15 +15 1007.4 1006.1 +15.2 3
19 15.06 С 2 35 км н/о +14.7 +10.7 77 +14 +14 1007.1 1005.8
20 15.06 З 2 4800 м сильн. ливневой дождь н/о +12.0 +10.6 91 +11 +11 1007.1 1005.8
21 15.06 СВ 2 40 км в посл. час дождь н/о +11.8 +10.9 94 +11 +11 1007.2 1005.9
22 15.06 ЮВ 1 15 км н/о +10.7 +9.9 95 +11 +11 1007.3 1005.9
23 15.06 В 1 12 км в посл. час дождь н/о +10.8 +10.2 96 +11 +11 1006.9 1005.6
00 16.06 В 1 13 км н/о +10.3 +9.8 97 +10 +10 1006.7 1005.4 1
01 16.06 СЗ 1 11 км дымка н/о +10.3 +10.0 98 +11 +11 1006.4 1005.1
02 16.06 С 1 13 км в посл. час туман н/о +10.0 +9.7 98 +9 +9 1006.0 1004.6
03 16.06 В 2 14 км слаб. ливневой дождь н/о +10.5 +10.2 98 +9 +9 1006.0 1004.6
04 16.06 В 1 28 км в посл. час дождь н/о +10.1 +9.8 98 +9 +9 1005.6 1004.3
05 16.06 Ю 1 12 км н/о +9.7 +9.4 98 +9 +9 1005.5 1004.1
06 16.06 Ю 6 50 км н/о +10.9 +9.1 89 +8 +8 1005.8 1004.5 +9.2 2
07 16.06 Ю 9 45 км н/о +11.4 +8.5 82 +8 +8 1006.1 1004.8
08 16.06 Ю 7 16 км н/о +10.9 +8.6 86 +7 +7 1006.6 1005.3
09 16.06 Ю 6 45 км в посл. час дождь н/о +11.6 +8.9 83 +9 +9 1007.1 1005.7
10 16.06 ЮЗ 7 45 км н/о +13.2 +8.8 75 +11 +11 1007.0 1005.6
11 16.06 ЮЗ 8 50 км н/о +12.6 +7.5 71 +10 +10 1007.3 1006.0
12 16.06 ЮЗ 8 40 км н/о +14.5 +8.5 67 +12 +12 1007.3 1006.0 0.2
13 16.06 ЮЗ 7 29 км н/о +15.7 +8.9 64 +14 +14 1007.5 1006.2
14 16.06 ЮЗ 5 40 км н/о +15.0 +8.1 63 +14 +14 1007.5 1006.1
15 16.06 ЮЗ 5 40 км н/о +15.5 +8.4 63 +14 +14 1007.4 1006.1
16 16.06 ЮЗ 4 50 км н/о +14.3 +7.4 63 +13 +13 1007.2 1005.9
17 16.06 З 4 40 км н/о +14.7 +8.3 65 +14 +14 1007.2 1005.8
18 16.06 Ю 4 35 км в посл. час дождь н/о +13.9 +7.5 65 +13 +13 1007.2 1005.9 +16.1 0.2
19 16.06 Ю 2 40 км н/о +14.0 +6.6 61 +14 +14 1007.1 1005.8
20 16.06 СВ 4 45 км н/о +12.1 +7.5 73 +10 +10 1006.9 1005.6
21 16.06 СВ 4 50 км н/о +11.1 +7.2 77 +9 +9 1006.8 1005.5
22 16.06 СВ 4 50 км н/о +11.1 +7.1 76 +9 +9 1006.4 1005.1
23 16.06 СВ 4 50 км н/о +11.2 +7.5 78 +9 +9 1005.8 1004.5
00 17.06 СЗ 1 45 км н/о +8.8 +6.7 87 +9 +9 1005.1 1003.8
01 17.06 СВ 1 50 км н/о +8.1 +6.8 91 +7 +7 1004.7 1003.3
02 17.06 ЮВ 1 45 км н/о +9.0 +7.7 92 +8 +8 1004.3 1002.9
03 17.06 В 1 28 км слаб. морось с дождем н/о +9.2 +8.1 93 +9 +9 1003.8 1002.4
04 17.06 ЮВ 1 45 км слаб. дождь н/о +9.5 +8.5 93 +9 +9 1003.7 1002.4
05 17.06 Ю 3 24 км слаб. дождь н/о +10.3 +8.8 90 +8 +8 1003.8 1002.5
06 17.06 Ю 3 16 км слаб. ливневой дождь н/о +10.5 +9.5 94 +8 +8 1004.1 1002.8 +8.0 0.8
07 17.06 Ю 3 45 км в посл. час дождь н/о +10.8 +9.8 94 +9 +9 1004.3 1002.9
08 17.06 Ю 3 40 км в посл. час дождь н/о +10.9 +10.0 94 +9 +9 1004.4 1003.0
09 17.06 Ю 6 16 км в посл. час дождь н/о +11.6 +10.4 92 +9 +9 1004.5 1003.1
10 17.06 Ю 7 13 км в посл. час дождь н/о +12.4 +10.4 88 +10 +10 1004.5 1003.2
11 17.06 ЮЗ 6 30 км в посл. час дождь н/о +13.5 +12.1 91 +11 +11 1004.4 1003.1
12 17.06 ЮЗ 6 40 км в посл. час дождь н/о +13.2 +10.3 83 +11 +11 1004.4 1003.1 4
13 17.06 ЮЗ 3 20 км слаб. ливневой дождь н/о +11.5 +10.3 92 +10 +10 1004.8 1003.5
14 17.06 ЮЗ 6 16 км слаб. дождь н/о +10.6 +9.0 90 +7 +7 1005.0 1003.7
15 17.06 Ю 6 40 км в посл. час дождь н/о +12.0 +9.9 87 +9 +9 1004.7 1003.4
16 17.06 Ю 6 45 км н/о +12.9 +9.5 80 +10 +10 1004.6 1003.3
17 17.06 Ю 6 45 км н/о +12.2 +9.5 84 +9 +9 1004.9 1003.6
18 17.06 ЮЗ 7 45 км в посл. час дождь н/о +11.9 +9.7 86 +9 +9 1005.4 1004.1 +13.9 6
19 17.06 ЮЗ 6 40 км в посл. час дождь н/о +11.8 +10.1 89 +9 +9 1005.8 1004.4
20 17.06 ЮЗ 9 45 км в посл. час дождь н/о +12.0 +9.6 85 +9 +9 1006.1 1004.8
21 17.06 Ю 7 14 км слаб. ливневой дождь н/о +11.4 +9.1 86 +8 +8 1006.3 1004.9
22 17.06 Ю 7 40 км в посл. час дождь н/о +11.6 +9.0 84 +8 +8 1006.1 1004.8
23 17.06 Ю 7 40 км н/о +11.7 +9.1 84 +9 +9 1006.0 1004.7
00 18.06 Ю 7 28 км н/о +11.7 +8.9 83 +8 +8 1005.8 1004.4 0.8
01 18.06 Ю 9
{14}
13 км слаб. ливневой дождь н/о +11.3 +8.9 85 +8 +8 1005.6 1004.2
02 18.06 Ю 9
{15}
9000 м слаб. ливневой дождь н/о +11.3 +9.3 87 +8 +8 1004.8 1003.5
03 18.06 Ю 10
{14}
13 км слаб. морось н/о +11.1 +9.8 92 +7 +7 1004.3 1003.0
04 18.06 Ю 10
{14}
5000 м слаб. дождь н/о +10.8 +9.8 94 +6 +6 1004.1 1002.8
05 18.06 Ю 9
{15}
8000 м слаб. дождь н/о +10.5 +9.3 92 +6 +6 1003.7 1002.4
06 18.06 Ю 7 11 км слаб. дождь н/о +10.5 +9.6 94 +7 +7 1003.9 1002.6 +10.4 8
07 18.06 Ю 6 11 км слаб. ливневой дождь н/о +10.6 +9.8 95 +7 +7 1004.3 1002.9
08 18.06 Ю 8 7000 м слаб. морось с дождем н/о +11.1 +10.2 94 +7 +7 1004.5 1003.2
09 18.06 ЮЗ 9 30 км в посл. час дождь н/о +11.9 +10.2 89 +8 +8 1004.9 1003.6
10 18.06 ЮЗ 6 35 км в посл. час дождь н/о +11.7 +10.3 91 +9 +9 1005.3 1004.0
11 18.06 ЮЗ 6 30 км слаб. морось с дождем н/о +11.5 +10.1 91 +9 +9 1005.8 1004.5
12 18.06 ЮЗ 10
{13}
26 км в посл. час дождь н/о +12.3 +10.0 86 +9 +9 1006.2 1004.9 2
13 18.06 ЮЗ 8
{13}
5000 м слаб. ливневой дождь н/о +11.5 +10.0 90 +8 +8 1006.5 1005.2
14 18.06 ЮЗ 7 23 км в посл. час дождь н/о +11.8 +10.6 92 +9 +9 1006.7 1005.3
15 18.06 ЮЗ 10
{13}
9000 м слаб. ливневой дождь н/о +12.2 +11.2 94 +8 +8 1006.9 1005.6
16 18.06 ЮЗ 8 24 км в посл. час дождь н/о +12.3 +10.1 86 +9 +9 1007.0 1005.6
17 18.06 ЮЗ 9 21 км в посл. час дождь н/о +13.0 +11.0 88 +10 +10 1006.8 1005.5
18 18.06 Ю 7 30 км н/о +12.7 +9.8 83 +10 +10 1007.0 1005.7 +14.1 5
19 18.06 Ю 8 30 км н/о +12.5 +9.4 81 +9 +9 1007.0 1005.7
20 18.06 Ю 8 24 км н/о +11.9 +9.5 85 +9 +9 1007.1 1005.8
21 18.06 Ю 8 40 км в посл. час дождь н/о +11.8 +9.1 84 +8 +8 1007.1 1005.7
22 18.06 Ю 8 11 км слаб. ливневой дождь н/о +11.0 +10.2 95 +7 +7 1007.2 1005.8
23 18.06 Ю 8 28 км слаб. дождь н/о +10.8 +10.0 95 +7 +7 1006.8 1005.5
00 19.06 Ю 7 30 км слаб. морось н/о +11.0 +10.2 95 +7 +7 1006.3 1005.0 2
01 19.06 Ю 6 35 км в посл. час дождь н/о +10.8 +10.0 95 +7 +7 1006.2 1004.8
02 19.06 Ю 7 25 км слаб. ливневой дождь н/о +10.9 +10.0 94 +7 +7 1005.7 1004.3
03 19.06 Ю 6 45 км в посл. час дождь н/о +10.9 +9.8 93 +8 +8 1005.5 1004.1
04 19.06 Ю 7 35 км в посл. час дождь н/о +11.1 +9.4 89 +8 +8 1005.0 1003.7
05 19.06 Ю 7 4800 м дождь н/о +10.8 +9.9 94 +7 +7 1004.9 1003.5
06 19.06 Ю 7 6000 м дождь н/о +10.6 +10.0 96 +7 +7 1004.7 1003.3 +10.4 7
07 19.06 Ю 7 12 км слаб. морось н/о +11.0 +10.0 94 +8 +8 1004.5 1003.1
08 19.06 Ю 6 4300 м дождь н/о +10.8 +9.8 94 +8 +8 1004.5 1003.1
09 19.06 Ю 8 16 км слаб. дождь н/о +11.1 +10.3 95 +7 +7 1004.4 1003.1
10 19.06 Ю 7 30 км в посл. час дождь н/о +11.3 +10.0 92 +8 +8 1004.2 1002.9
11 19.06 Ю 7 29 км н/о +12.4 +9.2 81 +9 +9 1004.0 1002.7
12 19.06 ЮЗ 7 9000 м слаб. ливневой дождь н/о +11.9 +10.5 91 +9 +9 1004.1 1002.7 5
13 19.06 Ю 8 28 км в посл. час дождь н/о +12.9 +10.1 83 +10 +10 1004.1 1002.8
14 19.06 ЮЗ 9 40 км н/о +14.3 +9.0 70 +12 +12 1003.8 1002.5
15 19.06 ЮЗ 7 26 км в посл. час дождь н/о +14.3 +9.2 71 +12 +12 1003.7 1002.4
17 19.06 Ю 8 40 км н/о +14.0 +8.5 69 +12 +12 1003.5 1002.1
18 19.06 ЮЗ 8 40 км н/о +13.4 +7.7 68 +11 +11 1003.4 1002.0 +14.7 5
19 19.06 ЮЗ 8 35 км н/о +12.8 +7.6 71 +10 +10 1003.2 1001.9
20 19.06 Ю 7 29 км н/о +11.7 +7.5 75 +9 +9 1003.4 1002.0

 

Местоположение метеостанции Олтбея (Великобритания): широта 57.87 долгота -5.63 высота над уровнем моря 10 м.

В архиве по умолчанию представлена погода в Олтбее за последнюю неделю. Архивные данные за месяц целиком и за предыдущие месяцы, начиная с января 2011 года, Вы можете получить, выбрав интересующий диапазон дат из раскрывающегося списка и нажав кнопку "Ввод!".


*Определитесь, кто Вы:
робот инопланетянин человек

Внимание! Время в таблицах - всемирное. Для получения местного времени необходимо прибавить поправку, которая равна 0 ч.

Смотрите также архив погоды в соседних городах и на ближайших метеорологических станциях:

Погода на Озере Гласкарнок (Великобритания) (47 км)
Погода на Перевале Bealach Na Ba (Великобритания) (50 км)
Погода в Сторновее (Великобритания) (56 км)
Погода на Скае (Великобритания) (70 км)
Погода на Алтнахарре (Великобритания) (84 км)
Погода в Тейн-Рендже (Великобритания) (98 км)
Погода на Южном Уисте (Великобритания) (120 км)
Погода на Горе Аонах Мор (Великобритания) (123 км)
Погода на Станции Tulloch Bridge (Великобритания) (124 км)
Погода в Кинлоссе (Великобритания) (125 км)

Пояснения к столбцам:

Ветер - указаны скорость ветра в м/с - средняя за 10 мин, порывы в срок и между сроками (в фигурных скобках) и направление, откуда дует ветер: С - северный, СВ - северо-восточный, В - восточный, ЮВ - юго-восточный, Ю - южный, ЮЗ - юго-западный, З - западный, СЗ - северо-западный.
Видимость - горизонтальная дальность видимости в метрах или километрах. При видимости от 1 до 10 км при отсутствии осадков обычно наблюдается дымка, при ухудшении видимости до 1 км и менее - туман. В сухую погоду видимость может ухудшаться дымом, пылью или мглою.
Явления - указаны атмосферные явления, наблюдавшиеся в срок или в последний час перед сроком; фигурными скобками обозначены явления, наблюдавшиеся между сроками (за 1-3 часа до срока); квадратными скобками обозначены град или гололедные отложения с указанием их диаметра в мм.
Облачность - указаны через наклонную черту общая и нижняя облачность в баллах и высота нижней границы облаков в метрах; квадратными скобками обозначены формы облаков: Ci - перистые, Cs - перисто-слоистые, Cc - перисто-кучевые, Ac - высококучевые, As - высокослоистые, Sc - слоисто-кучевые, Ns - слоисто-дождевые, Cu - кучевые, Cb - кучево-дождевые. Подробнее классификацию облаков см. в Атласе облаков (PDF).
T - Температура воздуха - температура, измеренная на высоте 2 м над землей.
Td - Температура точки росы - температура, при понижении до которой содержащийся в воздухе водяной пар достигнет насыщения.
f - Относительная влажность воздуха - влажноcть воздуха, измеренная на высоте 2 м над землей.
Te - Эффективная температура - температура, которую ощущает одетый по сезону человек в тени. Характеристика душности погоды. При расчете учитывается влияние влажности воздуха и скорости ветра на теплоощущения человека.
Tes - Эффективная температура на солнце - температура, которую ощущает человек, с поправкой на солнечный нагрев. Характеристика знойности погоды. Зависит от высоты солнца над горизонтом, облачности и скорости ветра. Ночью, в пасмурную погоду, а также при ветре 12 м/с и более поправка равна нулю.
P - Атмосферное давление - приведенное к уровню моря атмосферное давление.
Po - Атмосферное давление - измеренное на уровне метеостанции атмосферное давление.
Tmin - Минимальная температура - минимум температуры воздуха на высоте 2 м над землей.
Tmax - Максимальная температура - максимум температуры воздуха на высоте 2 м над землей.
R - Количество осадков - Количество выпавших осадков за период времени, мм. При наведении курсора мыши на число - период времени, за который выпало указанное количество осадков.
R24 - Количество осадков - Количество выпавших осадков за 24 часа, мм.
S - Снежный покров - Высота снежного покрова, см. При наведении курсора мыши на число - состояние снежного покрова и степень покрытия местности в баллах.